[[{"header":{"parameterUnit":"m.s-1","parameterCategory":1,"la1":30.2991,"la2":30.254,"lo1":-89.0895,"lo2":-89.0444,"dy":0.0017,"dx":0.0017,"nx":28,"ny":28,"refTime":"2025-03-18T03:00:00:Z","depth":0,"parameterNumber":2,"parameterNumberName":"U-component_of_WINDS"},"data":[0,0,0,0,0,0,0,0,0,0,0,0,0,0,0,0,0,0,0,0,0,0,0,0,0,0,0,0,0,0,0,0,0,0,0,0,0,0,0,0,0,0,0,0,0,0,0,0,0,0,0,0,0,0,0,0,0,0,1.7165,1.7165,0,1.7197,1.7197,1.7198,1.7109,1.7106,1.7103,1.7101,1.714,1.7143,1.7147,0,0,0,0,0,0,0,0,0,0,0,0,0,1.7032,1.7035,1.7165,1.7165,1.7165,1.7197,1.7197,1.7198,1.7109,1.7106,1.7103,1.71,1.7138,1.7143,1.7147,0,0,0,0,0,0,0,0,0,0,0,0,0,1.708,1.7036,1.7165,1.7125,1.7122,1.7197,1.7197,1.7198,1.711,1.7106,1.7102,1.7098,1.7137,1.7142,1.7148,1.7264,0,0,1.7164,1.7166,0,0,0,0,0,0,0,0,1.7077,1.7085,1.713,1.7128,1.7124,1.7144,1.7165,1.722,1.7111,1.7115,1.7101,1.7096,1.7145,1.7149,1.7165,1.7266,1.7268,1.7165,1.7168,1.717,1.7172,0,0,0,0,0,0,0,1.7074,1.7083,1.7178,1.7131,1.7128,1.7107,1.711,1.7175,1.7153,1.7114,1.7108,1.7112,1.7143,1.716,1.7165,1.7268,1.7164,1.7169,1.7173,1.7175,1.7468,1.7472,0,0,0,0,0,0,1.7075,1.708,1.7177,1.7178,1.709,1.7113,1.7116,1.7142,1.7152,1.7149,1.7116,1.7108,1.7153,1.7159,1.7166,1.7303,1.717,1.7175,1.7178,1.7463,1.7469,1.7474,0,0,0,0,0,0,1.7072,1.7084,1.7175,1.7128,1.7138,1.712,1.7151,1.7145,1.7162,1.7153,1.7149,1.7137,1.715,1.7158,1.724,1.7303,1.7178,1.7183,1.7458,1.7465,1.7471,1.7579,0,0,0,0,0,0,1.7069,1.7084,1.7126,1.7129,1.7141,1.7247,1.7155,1.7149,1.7171,1.7161,1.7172,1.717,1.7147,1.7233,1.7246,1.7308,1.7187,1.7452,1.7461,1.7469,1.7569,1.7588,1.7604,0,0,0,0,0,1.7064,1.7156,1.7129,1.7141,1.7193,1.7251,1.7258,1.7227,1.7177,1.722,1.7215,1.717,1.7295,1.7242,1.7256,1.7321,1.7448,1.7459,1.7468,1.7561,1.7584,1.7604,0,0,0,0,0,0,1.7163,1.7156,1.7126,1.7221,1.7237,1.7236,1.729,1.7253,1.7285,1.7275,1.7238,1.7241,1.733,1.7334,1.7275,1.7435,1.7363,1.7376,1.7429,1.7451,1.7468,1.7465,1.7191,0,0,0,0,0,1.7195,1.7241,1.7233,1.7318,1.7328,1.7308,1.7332,1.7307,1.7323,1.733,1.733,1.7349,1.7393,1.7422,1.7462,1.757,1.7572,1.7622,1.764,1.7654,1.7666,1.7724,1.7747,1.7507,1.7507,1.7507,0,0,1.7264,1.7265,1.7297,1.7338,1.7348,1.7398,1.7314,1.737,1.7407,1.7339,1.7415,1.7417,1.7436,1.7532,1.7574,1.7537,1.7733,1.7667,1.7679,1.7683,1.7737,1.776,1.778,1.7514,1.7513,1.7512,0,0,1.7413,1.7419,1.749,1.7501,1.7516,1.7503,1.752,1.7525,1.7523,1.7599,1.7549,1.7594,1.7669,1.7684,1.7702,1.7859,1.7819,1.7874,1.7965,1.8022,1.8041,1.8057,1.8114,1.8134,1.7886,1.7886,1.7886,0,1.7496,1.7567,1.7532,1.7591,1.7611,1.7551,1.7624,1.7637,1.7666,1.7682,1.7641,1.7734,1.7743,1.7841,1.788,1.7896,1.7916,1.7871,1.8041,1.8057,1.8072,1.8125,1.8146,1.7892,1.7892,1.7891,1.789,0,1.7668,1.7719,1.7775,1.7802,1.7829,1.7895,1.7872,1.7904,1.7878,1.7869,1.7948,1.7956,1.7996,1.8018,1.7994,1.8114,1.8091,1.8046,1.7973,1.8102,1.8151,1.8171,1.7901,1.7899,1.7897,1.7896,0,0,1.7878,1.7886,1.7907,1.7919,1.7932,1.7971,1.8036,1.8073,1.8102,1.8124,1.8178,1.8244,1.8202,1.8223,1.82,1.825,1.8375,1.8199,1.8199,1.8231,1.8508,1.8541,1.8565,1.8349,1.8353,1.8356,1.8507,0,1.8025,1.8133,1.8104,1.8213,1.8259,1.8204,1.826,1.8276,1.827,1.831,1.8305,1.8352,1.8293,1.8305,1.8353,1.8349,1.843,1.8338,1.84,1.8402,1.8395,1.8591,1.8626,1.8768,1.8526,1.8529,1.8531,0,1.8209,1.8237,1.835,1.8356,1.8375,1.8426,1.8458,1.8498,1.8515,1.8507,1.8531,1.8498,1.8564,1.8491,1.8582,1.852,1.8544,1.8547,1.8552,1.8555,1.8474,1.86,1.8813,1.8834,1.8561,1.8559,1.8557,0,1.8351,1.8417,1.8493,1.8505,1.8514,1.8552,1.8558,1.857,1.8595,1.8625,1.8641,1.8679,1.87,1.8731,1.8711,1.8659,1.8806,1.8731,1.8802,1.8803,1.8834,1.8832,1.9053,1.8851,1.8851,1.8851,1.885,0,1.8517,1.8588,1.8557,1.8603,1.8682,1.865,1.873,1.8729,1.8742,1.8789,1.8745,1.879,1.8761,1.8805,1.879,1.8868,1.8878,1.8874,1.8869,1.8878,1.8878,1.8892,1.8882,1.8856,1.8855,1.8854,1.8853,0,1.8687,1.8669,1.8748,1.8751,1.8753,1.8811,1.8814,1.8858,1.885,1.891,1.8923,1.891,1.896,1.8943,1.8997,1.8986,1.9085,1.9068,1.9079,1.9074,1.9146,1.914,1.9383,1.9414,1.9193,1.9195,1.9197,0,1.8794,1.8847,1.8855,1.8882,1.8891,1.8937,1.8961,1.8933,1.8961,1.8986,1.9028,1.9073,1.9107,1.919,1.9187,1.9228,1.9211,1.9294,1.9217,1.9224,1.9212,1.9209,1.9214,1.9309,1.9311,1.9314,1.9315,0,1.8984,1.8973,1.9009,1.9044,1.9075,1.9101,1.9123,1.9149,1.9122,1.9157,1.9206,1.9233,1.9287,1.9333,1.9371,1.9379,1.9344,1.934,1.9358,1.9367,1.9371,1.9369,1.912,1.9334,1.9332,1.9331,1.933,1.9329,1.9125,1.917,1.9183,1.9226,1.924,1.9262,1.9304,1.9301,1.934,1.9381,1.9363,1.942,1.9438,1.9484,1.9498,1.9544,1.9512,1.9539,1.9546,1.9553,1.9562,1.9364,1.9551,1.955,1.955,1.9549,1.9549,0,1.9313,1.9319,1.9359,1.9391,1.9425,1.9388,1.9411,1.9443,1.9493,1.9512,1.9547,1.9605,1.965,1.9651,1.9693,1.973,1.9714,1.9742,1.9738,1.9741,1.9588,1.9567,1.9753,1.9753,1.9753,1.9753,1.9753,1.9753,1.9415,1.9488,1.9479,1.9561,1.9566,1.9621,1.9637,1.9658,1.9673,1.9739,1.9775,1.9775,1.9788,1.9831,1.9871,1.987,1.9888,1.9922,1.9915,1.9772,1.9752,1.9732,1.9712,1.9926,1.9926,2.0064,2.0065,2.0066]},{"header":{"parameterUnit":"m.s-1","parameterCategory":1,"la1":30.2991,"la2":30.254,"lo1":-89.0895,"lo2":-89.0444,"dy":0.0017,"dx":0.0017,"nx":28,"ny":28,"refTime":"2025-03-18T03:00:00:Z","depth":0,"parameterNumber":3,"parameterNumberName":"V-component_of_WINDS"},"data":[0,0,0,0,0,0,0,0,0,0,0,0,0,0,0,0,0,0,0,0,0,0,0,0,0,0,0,0,0,0,0,0,0,0,0,0,0,0,0,0,0,0,0,0,0,0,0,0,0,0,0,0,0,0,0,0,0,0,1.7068,1.7068,0,1.7123,1.7124,1.7125,1.7106,1.7104,1.7103,1.7102,1.7159,1.7162,1.7164,0,0,0,0,0,0,0,0,0,0,0,0,0,1.6944,1.6947,1.7068,1.7068,1.7069,1.7123,1.7124,1.7125,1.7106,1.7104,1.7103,1.7102,1.7158,1.7161,1.7164,0,0,0,0,0,0,0,0,0,0,0,0,0,1.6999,1.6947,1.7068,1.7066,1.7067,1.7123,1.7124,1.7125,1.7106,1.7104,1.7103,1.7101,1.7157,1.7161,1.7165,1.7226,0,0,1.7177,1.7179,0,0,0,0,0,0,0,0,1.6996,1.7003,1.7066,1.7066,1.7067,1.7106,1.7101,1.7159,1.7107,1.7091,1.7102,1.71,1.7143,1.7148,1.7162,1.7228,1.7231,1.7177,1.718,1.7181,1.7183,0,0,0,0,0,0,0,1.6992,1.7001,1.709,1.7067,1.7067,1.7062,1.7068,1.7112,1.7127,1.7092,1.7091,1.7098,1.7143,1.7158,1.7163,1.7232,1.7177,1.7181,1.7183,1.7185,1.7349,1.7351,0,0,0,0,0,0,1.6988,1.6998,1.7088,1.7091,1.7026,1.7066,1.7073,1.7095,1.7126,1.7129,1.71,1.7097,1.7152,1.7159,1.7165,1.7238,1.7181,1.7185,1.7187,1.7347,1.735,1.7352,0,0,0,0,0,0,1.6985,1.6996,1.7086,1.7044,1.7055,1.707,1.7096,1.7097,1.7113,1.7131,1.7134,1.7113,1.7151,1.716,1.7211,1.724,1.7187,1.7191,1.7345,1.7348,1.7351,1.7385,0,0,0,0,0,0,1.6982,1.6995,1.7019,1.7045,1.7057,1.7131,1.7098,1.71,1.712,1.7117,1.7145,1.7147,1.7151,1.7205,1.7215,1.7244,1.7194,1.7342,1.7346,1.735,1.7381,1.7389,1.7395,0,0,0,0,0,1.6977,1.7027,1.702,1.7031,1.7088,1.7132,1.714,1.7142,1.7122,1.7146,1.7157,1.7147,1.7235,1.721,1.7221,1.7253,1.7341,1.7345,1.735,1.7378,1.7387,1.7395,0,0,0,0,0,0,1.7004,1.703,1.7023,1.7083,1.7105,1.7129,1.7159,1.7152,1.7181,1.7177,1.7179,1.7185,1.7237,1.725,1.7222,1.7312,1.7285,1.7292,1.7303,1.7311,1.7318,1.7314,1.7197,0,0,0,0,0,1.7017,1.7052,1.7072,1.7122,1.7134,1.7145,1.7164,1.7164,1.7188,1.7197,1.7213,1.7236,1.7269,1.7291,1.7322,1.7382,1.7388,1.7409,1.7416,1.7422,1.7428,1.746,1.7469,1.7367,1.7367,1.7367,0,0,1.7044,1.7062,1.7084,1.7128,1.7146,1.7181,1.7153,1.7192,1.7218,1.7203,1.7252,1.7264,1.729,1.7346,1.7371,1.7358,1.7457,1.7427,1.7432,1.7435,1.7465,1.7475,1.7484,1.737,1.7369,1.7369,0,0,1.7111,1.7129,1.7172,1.719,1.7217,1.7223,1.7233,1.7258,1.7265,1.7314,1.7304,1.7334,1.7391,1.741,1.7427,1.7499,1.749,1.7509,1.7545,1.7576,1.7584,1.7592,1.7617,1.7626,1.7515,1.7515,1.7515,0,1.7141,1.7194,1.7195,1.7235,1.7254,1.7241,1.7285,1.7302,1.7338,1.7352,1.7336,1.7406,1.7423,1.7482,1.7499,1.7514,1.7525,1.7506,1.7583,1.759,1.7597,1.7621,1.7631,1.7517,1.7517,1.7517,1.7516,0,1.723,1.7267,1.7298,1.7333,1.7355,1.7397,1.7403,1.7426,1.7423,1.7431,1.748,1.7499,1.7534,1.7548,1.7546,1.7607,1.7597,1.7583,1.7555,1.7609,1.7632,1.7641,1.752,1.7519,1.7519,1.7518,0,0,1.7318,1.735,1.7362,1.7377,1.7405,1.7433,1.7473,1.7507,1.7526,1.755,1.7584,1.7631,1.7617,1.7636,1.7635,1.7663,1.7718,1.7644,1.7645,1.7657,1.7785,1.7797,1.7808,1.7711,1.7713,1.7714,1.7783,0,1.7387,1.7458,1.7459,1.7524,1.7557,1.7545,1.7579,1.76,1.7608,1.7637,1.7645,1.7679,1.7658,1.7669,1.7695,1.7706,1.7744,1.7701,1.7742,1.7744,1.7737,1.782,1.7832,1.7897,1.7792,1.7794,1.7795,0,1.7478,1.7505,1.7573,1.7595,1.7609,1.764,1.767,1.7698,1.7721,1.7724,1.7745,1.774,1.778,1.775,1.7804,1.7775,1.7792,1.7799,1.7802,1.7806,1.7773,1.7827,1.7917,1.7927,1.7809,1.7808,1.7807,0,1.7535,1.7588,1.7636,1.7649,1.7675,1.7698,1.771,1.773,1.775,1.7775,1.7788,1.7818,1.7835,1.7858,1.7861,1.7839,1.7916,1.7886,1.792,1.792,1.7937,1.7936,1.8032,1.7947,1.7947,1.7947,1.7947,0,1.7613,1.7656,1.7662,1.7691,1.7737,1.7737,1.7783,1.7793,1.7811,1.7841,1.7832,1.7861,1.7863,1.7892,1.7894,1.7939,1.7946,1.795,1.795,1.7951,1.7951,1.7963,1.7959,1.7949,1.7949,1.7948,1.7948,0,1.7686,1.7691,1.7742,1.7763,1.7769,1.7802,1.7819,1.7847,1.7853,1.7891,1.79,1.791,1.7944,1.7948,1.7988,1.7989,1.8043,1.8038,1.8035,1.8035,1.8068,1.8065,1.8175,1.8189,1.8095,1.8096,1.8097,0,1.7735,1.7767,1.7791,1.7811,1.7824,1.7855,1.7875,1.7876,1.7896,1.7923,1.7947,1.798,1.8006,1.806,1.807,1.81,1.8096,1.8133,1.8101,1.81,1.8097,1.8095,1.8098,1.8139,1.814,1.8141,1.8142,0,1.7823,1.7824,1.7853,1.7882,1.7906,1.7929,1.7951,1.7967,1.797,1.7994,1.8028,1.8048,1.8088,1.812,1.8149,1.8161,1.8152,1.8151,1.8161,1.8163,1.816,1.8162,1.8053,1.8149,1.8149,1.8148,1.8148,1.8147,1.7886,1.7913,1.7934,1.7966,1.7982,1.8002,1.8029,1.8038,1.8066,1.8099,1.8097,1.8134,1.8154,1.8192,1.8206,1.8234,1.8222,1.8236,1.8239,1.8243,1.8246,1.8154,1.824,1.8239,1.8239,1.8239,1.8239,0,1.7973,1.7985,1.8015,1.8045,1.807,1.8059,1.8082,1.8103,1.8136,1.8156,1.8181,1.822,1.825,1.8262,1.8292,1.8313,1.8309,1.8321,1.832,1.8322,1.8255,1.8244,1.8323,1.8323,1.8323,1.8323,1.8323,1.8323,1.8022,1.8067,1.807,1.8124,1.8135,1.8172,1.8186,1.8204,1.8219,1.8263,1.8288,1.8296,1.8312,1.8342,1.837,1.8372,1.8384,1.8397,1.8398,1.8335,1.8327,1.8319,1.8309,1.84,1.84,1.8462,1.8463,1.8463]}]]